Powrót do katalogu

CZ-2D R/B

AktywnyPO
NORAD 28738·ROCKET BODY·🇨🇳 China

Wystrzelony Jul 5, 2005 z Jiuquan Satellite Launch Center

Loading…

Następne Przeloty (najbliższe 24 godziny)

TLE

ŚwieżeSource: Space-Track

Epoka: Sep 14, 2026, 01:00 UTC

1 28738U 05024B   26257.04224126  .00082300  00000-0  41694-3 0  9992
2 28738  97.3410 281.6139 0003840  78.9139 281.2561 15.81295574169329

Śledź CZ-2D R/B w czasie rzeczywistym z AllMySat

Download on the App Store